User: anonymous   Login
Location: Ash Swamp
(41.5170°N, 74.6157°W)
Time: 20:57:55
(UTC+00:00)
Language:

ISS - Orbit

View from above orbital plane
View from above orbital plane
View from above satellite
View from above satellite

Ground track
Ground track

The orbit data is extracted from the following two-line orbital elements,

1 25544U 98067A   20270.74438377  .00016717  00000-0  10270-3 0  9067
2 25544  51.6435 205.9396 0000514  57.5362 302.5837 15.48945318  7753
Epoch (UTC): 26 September 2020 17:51:54
Eccentricity: 0.0000514
inclination: 51.6435°
perigee height: 419 km
apogee height: 420 km
right ascension of ascending node: 205.9396°
argument of perigee: 57.5362°
revolutions per day: 15.48945318
mean anomaly at epoch: 302.5837°
orbit number at epoch: 775

The dashed part of the orbit path shows where the satellite is in the earth's shadow,  

DLR